Вернуться в каталог

STARLINK-30994

АктивенСвязьVLEO
NORAD 58483·PAYLOAD·🇺🇸 United States

Запущен Dec 3, 2023 с Cape Canaveral Space Force Station

Loading…

Ближайшие Пролёты (ближайшие 24 часа)

TLE

СвежийSource: CelesTrak SupGP

Эпоха: Sep 14, 2026, 22:12 UTC

1 58483C 23186L   26257.92548611  .00113790  00000+0  24159-2 0  2576
2 58483  42.9936 262.1799 0015273  93.6729 210.5098 15.43986460    15

Отслеживайте STARLINK-30994 в реальном времени с AllMySat

Download on the App Store